Location: ???????????
(54.5822°N, 39.1075°E)
Time: 11:11:04
(UTC+00:00)

Cosmos 2056 Rocket - Pass Details

Date: 19 May 2025
Orbit: 738 x 796 km, 74.0° (Epoch: 14 June)

Event Time Altitude Azimuth Distance (km) Brightness Sun altitude
Rises 20:59:00 0° 333° (NNW) 3,294 8.1 -15.3°
Reaches altitude 10° 21:01:26 10° 335° (NNW) 2,354 7.2 -15.3°
Maximum altitude 21:06:47 72° 60° (ENE) 821 3.7 -15.4°
Enters shadow 21:10:41 18° 143° (SE) 1,801 4.9 -15.4°
